This demonstration page uses our WeatherBlox Daily Observations layout. Learn more.

Left ArrowRight Arrow

39.29038, -76.61219

Hourly Observations for April 26, 2022

Temp ( °F °C ) Dew Point ( °F °C ) Humidity (%) Winds ( mph kmh ) Pressure ( in mb ) Visibility ( mi km ) Precip ( " mm )
12:24 am 00:24 Cloudy 59 15 54 12.2 83 83 ENE 8 13 30.09 1019 9 14 0.00 0.00
12:54 am 00:54 Cloudy with Mist and Fog 58 14.4 54 12.2 87 87 ENE 8 13 30.07 1018 6 10 0.00 0.00
1:54 am 01:54 Cloudy with Mist and Fog 58 14.4 54 12.2 87 87 ENE 6 9 30.06 1018 6 10 0.00 0.00
2:54 am 02:54 Cloudy with Mist and Fog 58 14.4 55 12.8 90 90 NNE 5 7 30.04 1017 5 8 0.00 0.00
3:30 am 03:30 Cloudy with Mist and Fog 58 14.4 55 12.8 90 90 NE 5 7 30.04 1017 4 6 0.00 0.00
3:47 am 03:47 Cloudy with Mist and Fog 58 14.4 56 13.3 93 93 NNE 3 6 30.04 1017 2 2 0.00 0.00
3:54 am 03:54 Cloudy with Mist and Fog 58 14.4 56 13.3 93 93 N 5 7 30.04 1017 2 2 0.00 0.00
4:54 am 04:54 Cloudy with Mist and Fog 57 13.9 56 13.3 96 96 N 5 7 30.04 1017 2 2 0.00 0.00
5:54 am 05:54 Cloudy with Mist and Fog 57 13.9 56 13.3 96 96 NNE 3 6 30.04 1017 2 2 0.00 0.00
6:15 am 06:15 Cloudy with Mist and Fog 57 13.9 56 13.3 96 96 NNW 3 6 30.05 1018 1 1 0.00 0.00
6:54 am 06:54 Cloudy with Mist and Fog 58 14.4 56 13.3 93 93 NNE 3 6 30.04 1017 1 1 0.00 0.00
7:29 am 07:29 Cloudy with Mist and Fog 58 14.4 56 13.3 93 93 NNW 8 13 30.06 1018 1 2 0.00 0.00
7:54 am 07:54 Cloudy with Drizzle 58 14.4 56 13.3 93 93 VRB 3 6 30.06 1018 2 2 0.00 0.00
8:34 am 08:34 Cloudy with Mist and Fog 59 15 56 13.3 90 90 VRB 3 6 30.05 1018 2 3 0.00 0.00
8:41 am 08:41 Cloudy with Mist and Fog 59 15 56 13.3 90 90 VRB 5 7 30.04 1017 2 3 0.00 0.00
8:54 am 08:54 Cloudy with Mist and Fog 60 15.6 56 13.3 86 86 VRB 3 6 30.04 1017 4 6 0.00 0.00
9:54 am 09:54 Cloudy with Haze 62 16.7 56 13.3 80 80 VRB 3 6 30.04 1017 6 10 0.00 0.00
10:54 am 10:54 Cloudy 63 17.2 56 13.3 78 78 NW 3 6 30.05 1018 7 11 0.00 0.00
11:54 am 11:54 Cloudy 66 18.9 57 13.9 73 73 NNW 6 9 30.04 1017 10 16 0.00 0.00
12:39 pm 12:39 Mostly Cloudy 70 21.1 57 13.9 64 64 NW 9 15 30.03 1017 10 16 0.00 0.00
12:54 pm 12:54 Mostly Cloudy 71 21.7 58 14.4 63 63 undefined N/A 30.02 1017 10 16 0.00 0.00
1:27 pm 13:27 Cloudy 71 21.7 57 13.9 61 61 WNW 14 22 30.00 1016 10 16 0.00 0.00
1:54 pm 13:54 Cloudy 69 20.6 57 13.9 66 66 NNW 10 17 30.01 1016 10 16 0.00 0.00
2:54 pm 14:54 Cloudy 67 19.4 55 12.8 66 66 NW 9 15 30.01 1016 10 16 0.00 0.00
3:01 pm 15:01 Cloudy 67 19.4 55 12.8 66 66 WNW 13 20 30.03 1017 10 16 0.00 0.00
3:22 pm 15:22 Cloudy with Rain 63 17.2 56 13.3 78 78 NW 10 17 30.01 1016 2 3 0.00 0.00
3:37 pm 15:37 Cloudy with Light Rain 62 16.7 56 13.3 80 80 NW 8 13 30.03 1017 4 6 0.07 1.78
3:54 pm 15:54 Cloudy 62 16.7 55 12.8 78 78 N 5 7 30.02 1017 7 11 0.08 2.03
4:54 pm 16:54 Cloudy with Light Rain 61 16.1 57 13.9 87 87 W 5 7 30.02 1017 10 16 0.00 0.00
5:54 pm 17:54 Cloudy 63 17.2 57 13.9 81 81 Calm 29.99 1016 10 16 0.00 0.00
6:54 pm 18:54 Cloudy with Light Rain 62 16.7 58 14.4 86 86 Calm 29.98 1015 10 16 0.00 0.00
7:54 pm 19:54 Mostly Cloudy with Light Rain 61 16.1 57 13.9 87 87 NE 5 7 29.97 1015 9 14 0.00 0.00
8:54 pm 20:54 Cloudy 60 15.6 57 13.9 90 90 WNW 6 9 30.01 1016 10 16 0.01 0.25
9:54 pm 21:54 Cloudy 60 15.6 57 13.9 90 90 WSW 5 7 30.02 1017 10 16 0.00 0.00
10:54 pm 22:54 Mostly Cloudy 57 13.9 55 12.8 93 93 WNW 6 9 30.03 1017 10 16 0.00 0.00
11:54 pm 23:54 Mostly Cloudy 56 13.3 53 11.7 90 90 SW 3 6 30.04 1017 10 16 0.00 0.00

Powered by AerisWeather